EW2270 Weather Reports


Display with metric or nautical units.
time (UTC)temp
F
wind
direction
speed
MPH
gust
MPH
rain 1hr
in
rain 24hr
in
rain mn
in
humidity
%
barometer
mb
20260904231555 68 34 2.0 10.0 0.00 0.00 0.00 40 1012.0
20260904230104 69 342 4.0 10.0 0.00 0.00 0.00 40 1012.2
20260904224607 69 30 2.0 6.0 0.00 0.00 0.00 38 1012.2
20260904223053 69 260 1.0 3.0 0.00 0.00 0.00 37 1012.2
20260904221552 70 13 1.0 6.0 0.00 0.00 0.00 36 1012.2
20260904220051 69 14 8.0 12.0 0.00 0.00 0.00 37 1012.3
20260904214555 69 308 5.0 9.0 0.00 0.00 0.00 39 1012.3
20260904213049 69 8 7.0 9.0 0.00 0.00 0.00 38 1012.3
20260904211552 68 23 5.0 10.0 0.00 0.00 0.00 38 1012.3
20260904210048 68 298 2.0 6.0 0.00 0.00 0.00 40 1012.1
20260904204543 67 292 3.0 7.0 0.00 0.00 0.00 41 1012.1
20260904203046 67 311 4.0 11.0 0.00 0.00 0.00 41 1012.2
20260904201545 67 27 7.0 10.0 0.00 0.00 0.00 42 1012.4
20260904200040 67 313 4.0 9.0 0.00 0.00 0.00 44 1012.3
20260904194537 66 335 4.0 9.0 0.00 0.00 0.00 44 1012.4
20260904193037 66 15 3.0 8.0 0.00 0.00 0.00 45 1012.6
20260904191534 65 352 5.0 8.0 0.00 0.00 0.00 45 1012.7
20260904190032 64 318 5.0 11.0 0.00 0.00 0.00 47 1012.8
20260904184530 64 336 3.0 10.0 0.00 0.00 0.00 47 1012.8
20260904183029 64 12 5.0 10.0 0.00 0.00 0.00 46 1013.0
20260904181527 63 30 5.0 9.0 0.00 0.00 0.00 48 1013.0
20260904180026 63 23 3.0 8.0 0.00 0.00 0.00 48 1013.1
20260904174525 63 13 3.0 6.0 0.00 0.00 0.00 49 1013.1
20260904173031 61 311 1.0 7.0 0.00 0.00 0.00 55 1013.0
20260904171519 60 10 1.0 5.0 0.00 0.00 0.00 57 1012.9
20260904170017 59 60 0.0 2.0 0.00 0.00 0.00 59 1013.1
20260904164512 58 279 0.0 3.0 0.00 0.00 0.00 63 1013.0
20260904163012 58 68 0.0 2.0 0.00 0.00 0.00 63 1012.9
20260904161507 55 345 0.0 4.0 0.00 0.00 0.00 69 1012.8
20260904160014 53 268 0.0 3.0 0.00 0.00 0.00 73 1012.8
20260904154504 51 299 2.0 5.0 0.00 0.00 0.00 73 1012.9
20260904153004 50 328 2.0 5.0 0.00 0.00 0.00 76 1012.8
20260904151502 49 108 1.0 3.0 0.00 0.00 0.00 79 1012.7
20260904150009 50 108 0.0 2.0 0.00 0.01 0.00 77 1012.6
20260904144603 47 108 0.0 0.0 0.00 0.01 0.00 80 1012.6
20260904143059 44 108 0.0 0.0 0.00 0.01 0.00 84 1012.5
20260904141559 43 108 0.0 0.0 0.00 0.01 0.00 83 1012.4
20260904140105 43 106 0.0 0.0 0.00 0.01 0.00 83 1012.1
20260904134604 41 106 0.0 0.0 0.00 0.01 0.00 86 1011.9
20260904133054 42 106 0.0 0.0 0.00 0.01 0.00 83 1011.7
20260904131548 43 106 0.0 0.0 0.00 0.01 0.00 82 1011.8
20260904130052 45 115 1.0 6.0 0.00 0.01 0.00 78 1011.5
20260904124553 44 101 3.0 4.0 0.00 0.01 0.00 81 1011.4
20260904123043 44 99 1.0 2.0 0.00 0.01 0.00 83 1011.4
20260904121540 45 99 0.0 0.0 0.00 0.01 0.00 81 1011.4
20260904120038 46 99 0.0 1.0 0.00 0.01 0.00 79 1011.3
20260904114538 45 99 1.0 3.0 0.00 0.01 0.00 82 1011.0
20260904113036 45 171 0.0 0.0 0.00 0.01 0.00 81 1010.9
20260904111539 46 171 0.0 2.0 0.00 0.01 0.00 80 1010.6
20260904110030 46 341 0.0 2.0 0.00 0.02 0.00 81 1010.4
20260904104532 46 301 1.0 3.0 0.00 0.02 0.00 81 1010.5
20260904103026 46 270 1.0 5.0 0.00 0.02 0.00 79 1010.2
20260904101522 47 304 0.0 3.0 0.00 0.02 0.00 79 1010.0
20260904100019 48 101 2.0 6.0 0.00 0.10 0.00 75 1009.4
20260904094517 49 108 0.0 2.0 0.00 0.10 0.00 73 1009.6
20260904093016 48 110 2.0 3.0 0.00 0.10 0.00 75 1009.7
20260904091515 49 110 1.0 2.0 0.00 0.10 0.00 71 1009.6
20260904090013 50 110 0.0 1.0 0.00 0.11 0.00 70 1009.7
20260904084513 49 110 0.0 3.0 0.00 0.11 0.00 71 1009.7
20260904083009 49 250 0.0 0.0 0.00 0.11 0.00 70 1009.3
20260904081508 50 250 0.0 1.0 0.00 0.11 0.00 68 1009.2
20260904080003 51 250 0.0 2.0 0.00 0.11 0.00 66 1009.3
20260904074612 52 257 1.0 7.0 0.00 0.11 0.00 65 1009.1
20260904073101 53 282 7.0 9.0 0.00 0.11 0.00 61 1009.0
20260904071556 54 126 4.0 10.0 0.00 0.11 0.00 58 1008.7
20260904070053 54 109 8.0 12.0 0.00 0.11 0.00 58 1008.5
20260904064551 54 109 7.0 14.0 0.00 0.20 0.11 59 1008.6
20260904063101 55 111 10.0 16.0 0.00 0.20 0.11 57 1008.5
20260904061550 55 117 10.0 15.0 0.00 0.20 0.11 58 1008.6
20260904060048 55 137 12.0 16.0 0.00 0.20 0.11 58 1008.6
20260904054548 55 117 8.0 17.0 0.00 0.31 0.11 59 1008.4
20260904053049 55 115 7.0 14.0 0.00 0.31 0.11 60 1008.4
20260904051559 55 122 6.0 18.0 0.00 0.31 0.11 60 1008.6
20260904050045 55 115 9.0 17.0 0.00 0.31 0.11 60 1008.8
20260904044543 56 103 12.0 18.0 0.00 0.38 0.11 57 1009.0
20260904043042 57 236 1.0 8.0 0.00 0.38 0.11 56 1008.8
20260904041544 57 90 5.0 10.0 0.00 0.38 0.11 55 1008.5
20260904040044 57 111 4.0 10.0 0.00 0.42 0.11 55 1008.4
20260904034539 58 115 10.0 16.0 0.00 0.42 0.11 52 1008.2
20260904033038 58 98 9.0 20.0 0.00 0.42 0.11 52 1008.1
20260904031536 58 103 10.0 16.0 0.00 0.42 0.11 53 1008.2
20260904030034 58 113 11.0 17.0 0.00 0.42 0.11 52 1007.8
20260904024534 59 103 13.0 23.0 0.00 0.42 0.11 51 1007.7
20260904023031 59 108 9.0 18.0 0.00 0.42 0.11 51 1007.8
20260904021536 60 139 7.0 15.0 0.00 0.42 0.11 50 1007.8
20260904020029 60 103 6.0 13.0 0.00 0.42 0.11 47 1007.8
20260904014531 61 118 7.0 14.0 0.00 0.42 0.11 57 1007.7
20260904013028 61 77 8.0 14.0 0.00 0.42 0.11 58 1007.6
20260904011533 61 79 6.0 10.0 0.00 0.42 0.11 59 1007.9
20260904010039 61 311 1.0 4.0 0.00 0.42 0.11 59 1008.0
20260904004527 62 11 0.0 2.0 0.00 0.42 0.11 58 1007.7
20260904003027 62 12 1.0 6.0 0.00 0.42 0.11 54 1007.7
20260904001525 62 63 3.0 6.0 0.00 0.42 0.11 54 1007.6
20260904000030 63 34 2.0 4.0 0.00 0.42 0.11 52 1007.8
20260903234522 63 30 1.0 4.0 0.00 0.42 0.11 51 1008.0
20260903233022 63 1 1.0 4.0 0.00 0.42 0.11 51 1008.0